Weather History for Mosby, MO

Change the Weather History Date:

Sunday, December 1, 2013

  Actual Average (KMKC) Record (KMKC)
Temperature  
Mean Temperature 38 °F -  
Max Temperature 53 °F 47 °F 68 °F (2012)
Min Temperature 23 °F 31 °F 15 °F (2006)
Degree Days  
Heating Degree Days 27    
Moisture  
Dew Point 30 °F    
Average Humidity 81    
Maximum Humidity 100    
Minimum Humidity 47    
Precipitation  
Precipitation 0.00 in - - ()
Sea Level Pressure  
Sea Level Pressure 30.04 in    
Wind  
Wind Speed 1 mph (East)    
Max Wind Speed 6 mph    
Max Gust Speed -    
Visibility 10 miles    
Events      
Averages and records for this station are not official NWS values.
T = Trace of Precipitation, MM = Missing Value Source: NWS Daily Summary

Daily Weather History Graph

Daily Weather History Graph

Search for Another Location

Airport:

Trip Planner

Search our weather history database for the weather conditions in past years. The results will help you decide how hot, cold, wet, or windy it might be!

Date:

Astronomy

Dec. 01, 2013 Rise Set
Actual Time 7:18 AM CST 4:54 PM CST
Civil Twilight 6:48 AM CST 5:24 PM CST
Nautical Twilight 6:15 AM CST 5:57 PM CST
Astronomical Twilight 5:43 AM CST 6:29 PM CST
Moon 5:37 AM CST (12/1) 4:04 PM CST (12/1)
Length of Visible Light 10h 35m
Length of Day
9h 36m
Waning Crescent, 2% of the Moon is Illuminated
Dec 1
Waning Crescent
Dec 2
New
Dec 9
First Quarter
Dec 17
Full
Dec 25
Last Quarter

Hourly Weather History & Observations

Time (CST) Temp. Windchill Dew Point Humidity Pressure Visibility Wind Dir Wind Speed Gust Speed Precip Events Conditions
12:15 AM 28.4 °F - 28.4 °F 100% 30.13 in 10.0 mi Calm Calm - N/A   Clear
12:35 AM 28.4 °F - 28.4 °F 100% 30.12 in 10.0 mi Calm Calm - N/A   Clear
12:55 AM 28.4 °F - 26.6 °F 93% 30.12 in 10.0 mi Calm Calm - N/A   Clear
1:15 AM 26.6 °F - 26.6 °F 100% 30.12 in 10.0 mi Calm Calm - N/A   Clear
1:35 AM 26.6 °F - 26.6 °F 100% 30.12 in 10.0 mi Calm Calm - N/A   Unknown
1:55 AM 26.6 °F - 26.6 °F 100% 30.12 in 10.0 mi Calm Calm - N/A   Clear
2:15 AM 26.6 °F - 26.6 °F 100% 30.12 in 10.0 mi Calm Calm - N/A   Clear
2:35 AM 26.6 °F - 26.6 °F 100% 30.12 in 10.0 mi Calm Calm - N/A   Clear
2:55 AM 26.6 °F - 26.6 °F 100% 30.12 in 10.0 mi Calm Calm - N/A   Clear
3:15 AM 26.6 °F 22.6 °F 24.8 °F 93% 30.12 in 10.0 mi North 3.5 mph - N/A   Clear
3:35 AM 26.6 °F - 24.8 °F 93% 30.12 in 7.0 mi Calm Calm - N/A   Clear
3:55 AM 26.6 °F - 26.6 °F 100% 30.12 in 10.0 mi Calm Calm - N/A   Unknown
4:15 AM 24.8 °F - 24.8 °F 100% 30.12 in 10.0 mi Calm Calm - N/A   Clear
4:35 AM 24.8 °F 19.1 °F 24.8 °F 100% 30.12 in 10.0 mi North 4.6 mph - N/A   Clear
4:55 AM 24.8 °F - 24.8 °F 100% 30.12 in 10.0 mi Calm Calm - N/A   Clear
5:15 AM 24.8 °F - 24.8 °F 100% 30.11 in 10.0 mi Calm Calm - N/A   Clear
5:35 AM 24.8 °F - 24.8 °F 100% 30.10 in 7.0 mi Calm Calm - N/A   Clear
5:55 AM 24.8 °F - 23.0 °F 93% 30.12 in 10.0 mi Calm Calm - N/A   Clear
6:15 AM 23.0 °F - 23.0 °F 100% 30.12 in 10.0 mi Calm Calm - N/A   Clear
6:35 AM 23.0 °F - 23.0 °F 100% 30.12 in 10.0 mi Calm Calm - N/A   Clear
6:55 AM 23.0 °F - 23.0 °F 100% 30.13 in 10.0 mi Calm Calm - N/A   Clear
7:15 AM 23.0 °F - 23.0 °F 100% 30.13 in 10.0 mi Calm Calm - N/A   Clear
7:35 AM 23.0 °F - 23.0 °F 100% 30.13 in 7.0 mi Calm Calm - N/A   Clear
7:55 AM 23.0 °F - 23.0 °F 100% 30.14 in 7.0 mi Calm Calm - N/A   Clear
8:15 AM 24.8 °F - 24.8 °F 100% 30.14 in 10.0 mi Calm Calm - N/A   Clear
8:35 AM 26.6 °F - 26.6 °F 100% 30.14 in 10.0 mi Calm Calm - N/A   Unknown
8:55 AM 28.4 °F - 28.4 °F 100% 30.14 in 10.0 mi Calm Calm - N/A   Clear
9:15 AM 32.0 °F 28.7 °F 30.2 °F 93% 30.13 in 10.0 mi NNW 3.5 mph - N/A   Clear
9:35 AM 33.8 °F - 32.0 °F 93% 30.13 in 10.0 mi Calm Calm - N/A   Clear
9:55 AM 37.4 °F 34.9 °F 33.8 °F 87% 30.13 in 10.0 mi NE 3.5 mph - N/A   Clear
10:15 AM 41.0 °F 39.0 °F 33.8 °F 76% 30.12 in 10.0 mi NE 3.5 mph - N/A   Clear
10:35 AM 42.8 °F 41.1 °F 33.8 °F 70% 30.12 in 10.0 mi North 3.5 mph - N/A   Clear
10:55 AM 44.6 °F - 33.8 °F 66% 30.12 in 10.0 mi Calm Calm - N/A   Clear
11:15 AM 44.6 °F 43.1 °F 33.8 °F 66% 30.11 in 10.0 mi NE 3.5 mph - N/A   Clear
11:35 AM 46.4 °F 45.2 °F 33.8 °F 62% 30.10 in 10.0 mi ESE 3.5 mph - N/A   Unknown
11:55 AM 48.2 °F - 33.8 °F 58% 30.08 in 10.0 mi ESE 4.6 mph - N/A   Clear
12:15 PM 50.0 °F - 35.6 °F 58% 30.07 in 10.0 mi SSE 5.8 mph - N/A   Clear
12:35 PM 50.0 °F - 33.8 °F 54% 30.07 in 10.0 mi Calm Calm - N/A   Clear
12:55 PM 50.0 °F - 33.8 °F 54% 30.05 in 10.0 mi Calm Calm - N/A   Clear
1:15 PM 51.8 °F - 33.8 °F 50% 30.04 in 10.0 mi SSE 4.6 mph - N/A   Clear
1:35 PM 51.8 °F - 33.8 °F 50% 30.03 in 10.0 mi South 4.6 mph - N/A   Clear
1:55 PM 51.8 °F - 35.6 °F 54% 30.01 in 10.0 mi SSE 3.5 mph - N/A   Clear
2:15 PM 51.8 °F - 33.8 °F 50% 30.01 in 10.0 mi Calm Calm - N/A   Clear
2:35 PM 51.8 °F - 33.8 °F 50% 30.00 in 10.0 mi SE 3.5 mph - N/A   Clear
2:55 PM 53.6 °F - 33.8 °F 47% 30.00 in 10.0 mi Calm Calm - N/A   Clear
3:15 PM 53.6 °F - 33.8 °F 47% 29.99 in 10.0 mi Calm Calm - N/A   Clear
3:35 PM 53.6 °F - 33.8 °F 47% 29.99 in 10.0 mi Calm Calm - N/A   Clear
3:55 PM 53.6 °F - 33.8 °F 47% 29.99 in 10.0 mi Calm Calm - N/A   Clear
4:15 PM 53.6 °F - 33.8 °F 47% 29.98 in 10.0 mi Calm Calm - N/A   Clear
4:35 PM 53.6 °F - 33.8 °F 47% 29.98 in 10.0 mi Calm Calm - N/A   Clear
4:55 PM 51.8 °F - 33.8 °F 50% 29.98 in 10.0 mi Calm Calm - N/A   Clear
5:15 PM 48.2 °F - 33.8 °F 58% 29.97 in 10.0 mi Calm Calm - N/A   Clear
5:35 PM 44.6 °F - 33.8 °F 66% 29.97 in 10.0 mi Calm Calm - N/A   Clear
5:55 PM 42.8 °F - 33.8 °F 70% 29.97 in 10.0 mi Calm Calm - N/A   Clear
6:15 PM 41.0 °F - 32.0 °F 70% 29.97 in 10.0 mi Calm Calm - N/A   Clear
6:35 PM 37.4 °F - 32.0 °F 81% 29.97 in 10.0 mi Calm Calm - N/A   Clear
6:55 PM 39.2 °F - 32.0 °F 75% 29.95 in 10.0 mi Calm Calm - N/A   Clear
7:15 PM 37.4 °F - 32.0 °F 81% 29.95 in 10.0 mi Calm Calm - N/A   Clear
7:35 PM 37.4 °F - 32.0 °F 81% 29.95 in 10.0 mi Calm Calm - N/A   Clear
7:55 PM 37.4 °F - 32.0 °F 81% 29.95 in 10.0 mi Calm Calm - N/A   Clear
8:15 PM 37.4 °F - 32.0 °F 81% 29.94 in 10.0 mi Calm Calm - N/A   Clear
8:35 PM 37.4 °F - 32.0 °F 81% 29.93 in 10.0 mi Calm Calm - N/A   Clear
8:55 PM 35.6 °F - 32.0 °F 87% 29.93 in 10.0 mi Calm Calm - N/A   Clear
9:15 PM 35.6 °F - 32.0 °F 87% 29.93 in 10.0 mi Calm Calm - N/A   Clear
9:35 PM 35.6 °F - 32.0 °F 87% 29.93 in 10.0 mi Calm Calm - N/A   Clear
9:55 PM 33.8 °F - 32.0 °F 93% 29.92 in 10.0 mi Calm Calm - N/A   Clear
10:15 PM 33.8 °F - 32.0 °F 93% 29.92 in 10.0 mi Calm Calm - N/A   Clear
10:35 PM 33.8 °F - 32.0 °F 93% 29.92 in 10.0 mi Calm Calm - N/A   Clear
10:55 PM 32.0 °F - 30.2 °F 93% 29.91 in 10.0 mi Calm Calm - N/A   Clear
11:15 PM 32.0 °F - 32.0 °F 100% 29.90 in 10.0 mi Calm Calm - N/A   Clear
11:35 PM 32.0 °F - 32.0 °F 100% 29.90 in 10.0 mi Calm Calm - N/A   Clear
11:55 PM 32.0 °F - 32.0 °F 100% 29.89 in 10.0 mi Calm Calm - N/A   Clear